Date,TemperatureHighF,TemperatureAvgF,TemperatureLowF,DewpointHighF,DewpointAvgF,DewpointLowF,HumidityHigh,HumidityAvg,HumidityLow,PressureMaxIn,PressureMinIn,WindSpeedMaxMPH,WindSpeedAvgMPH,GustSpeedMaxMPH,PrecipitationSumIn
2013-2-1,48,43,40,46,43,39,100,98,91,30.45,30.34,4,0,5,0.01
2013-2-2,47,39,35,44,38,34,99,97,87,30.43,30.25,5,0,8,0.01
2013-2-3,42,40,38,42,40,38,100,98,98,30.32,30.18,5,0,9,0.13
2013-2-4,44,43,41,44,42,41,99,98,97,30.18,29.85,8,1,10,0.06
2013-2-5,45,43,41,44,42,40,98,97,95,29.87,29.77,11,2,15,0.36
2013-2-6,44,42,40,43,41,40,100,96,85,30.02,29.77,12,3,15,0.50
2013-2-7,47,42,34,41,38,33,96,87,72,30.21,29.76,17,3,23,0.03
2013-2-8,43,37,33,38,35,32,98,93,80,30.32,30.21,3,0,4,0.01
2013-2-9,42,40,36,40,37,34,98,91,79,30.37,30.28,4,0,5,0.00
2013-2-10,46,38,32,39,36,31,98,90,73,30.40,30.33,7,0,9,0.01
2013-2-11,42,41,39,41,40,38,100,96,94,30.35,30.32,3,0,4,0.07
2013-2-12,45,43,41,44,42,40,100,98,97,30.38,30.22,8,1,9,0.04
2013-2-13,48,43,40,43,41,37,98,92,76,30.49,30.24,9,1,11,0.00
2013-2-14,44,42,40,43,41,39,97,96,94,30.60,30.48,5,0,5,0.06
2013-2-15,52,42,37,44,40,36,99,92,72,30.60,30.18,5,0,6,0.01
2013-2-16,51,44,40,47,41,38,98,90,67,30.19,30.07,11,2,15,0.17
2013-2-17,45,41,38,40,38,36,96,89,77,30.23,30.13,8,0,9,0.00
2013-2-18,41,39,38,40,37,36,98,94,90,30.13,29.79,6,1,10,0.13
2013-2-19,48,41,35,40,36,33,95,85,59,30.00,29.78,12,1,12,0.01
2013-2-20,39,37,33,38,36,32,97,94,87,30.04,30.00,6,0,7,0.26
2013-2-21,42,40,38,41,39,37,98,97,96,30.03,29.96,11,2,16,0.39
2013-2-22,47,40,36,46,38,34,98,93,70,30.00,29.58,17,3,25,1.85
2013-2-23,48,41,36,40,36,32,100,85,56,30.33,29.81,20,2,21,0.01
2013-2-24,41,40,38,40,39,37,97,96,93,30.34,29.88,9,1,13,1.19
2013-2-25,48,41,35,41,37,32,97,86,55,30.26,29.78,26,5,26,0.44
2013-2-26,43,38,34,40,36,32,95,93,83,30.33,30.17,8,1,11,0.43
2013-2-27,43,39,35,42,38,34,100,96,92,30.33,30.18,9,1,11,0.07
2013-2-28,45,40,35,44,39,34,99,97,94,30.30,30.22,11,0,11,1.17